Time,TemperatureF,DewpointF,PressureIn,WindDirection,WindDirectionDegrees,WindSpeedMPH,WindSpeedGustMPH,Humidity,HourlyPrecipIn,Conditions,Clouds,dailyrainin,SoftwareType,DateUTC
2013-05-17 00:03:00,67.0,60.0,29.89,NNW,338,0.0,0.0,77,0.00,,,0.00,,2013-05-17 04:03:00,
2013-05-17 00:13:00,67.0,60.0,29.89,NNW,338,0.0,0.0,77,0.00,,,0.00,,2013-05-17 04:13:00,
2013-05-17 00:23:00,67.0,60.0,29.89,NNW,338,0.0,0.0,77,0.00,,,0.00,,2013-05-17 04:23:00,
2013-05-17 00:33:00,67.0,60.0,29.89,NNW,338,0.0,0.0,77,0.00,,,0.00,,2013-05-17 04:33:00,
2013-05-17 00:43:00,67.0,60.0,29.89,NNW,338,0.0,0.0,77,0.00,,,0.00,,2013-05-17 04:43:00,
2013-05-17 00:53:00,67.0,60.0,29.90,NNW,338,0.0,0.0,77,0.00,,,0.00,,2013-05-17 04:53:00,
2013-05-17 01:03:00,67.0,60.0,29.89,NNW,338,0.0,0.0,77,0.00,,,0.00,,2013-05-17 05:03:00,
2013-05-17 01:14:00,67.0,60.0,29.89,NNW,338,0.0,0.0,77,0.00,,,0.00,,2013-05-17 05:14:00,
2013-05-17 01:22:00,66.0,59.0,29.90,NNW,338,0.0,0.0,77,0.00,,,0.00,,2013-05-17 05:22:00,
2013-05-17 01:32:00,66.0,59.0,29.91,NNW,338,0.0,0.0,78,0.00,,,0.00,,2013-05-17 05:32:00,
2013-05-17 01:42:00,66.0,59.0,29.91,NNW,338,0.0,0.0,78,0.00,,,0.00,,2013-05-17 05:42:00,
2013-05-17 01:52:00,66.0,59.0,29.90,NNW,338,0.0,0.0,78,0.00,,,0.00,,2013-05-17 05:52:00,
2013-05-17 02:02:00,66.0,59.0,29.90,NNW,338,0.0,0.0,77,0.00,,,0.00,,2013-05-17 06:02:00,
2013-05-17 02:11:00,66.0,59.0,29.90,NNW,338,0.0,0.0,77,0.00,,,0.00,,2013-05-17 06:11:00,
2013-05-17 02:22:00,65.0,58.0,29.90,NNW,338,0.0,0.0,78,0.00,,,0.00,,2013-05-17 06:22:00,
2013-05-17 02:32:00,65.0,58.0,29.90,NNW,338,0.0,0.0,79,0.00,,,0.00,,2013-05-17 06:32:00,
2013-05-17 02:42:00,65.0,58.0,29.90,NNW,338,0.0,0.0,79,0.00,,,0.00,,2013-05-17 06:42:00,
2013-05-17 02:52:00,64.0,58.0,29.90,NNW,338,0.0,0.0,81,0.00,,,0.00,,2013-05-17 06:52:00,
2013-05-17 03:02:00,63.0,57.0,29.90,NNW,338,0.0,0.0,82,0.00,,,0.00,,2013-05-17 07:02:00,
2013-05-17 03:11:00,63.0,57.0,29.90,NNW,338,0.0,0.0,82,0.00,,,0.00,,2013-05-17 07:11:00,
2013-05-17 03:21:00,63.0,58.0,29.90,NNW,338,0.0,0.0,83,0.00,,,0.00,,2013-05-17 07:21:00,
2013-05-17 03:32:00,62.0,57.0,29.91,NNW,338,0.0,0.0,84,0.00,,,0.00,,2013-05-17 07:32:00,
2013-05-17 03:43:00,62.0,57.0,29.91,NNW,338,0.0,0.0,84,0.00,,,0.00,,2013-05-17 07:43:00,
2013-05-17 03:53:00,61.0,56.0,29.91,NNW,338,0.0,0.0,85,0.00,,,0.00,,2013-05-17 07:53:00,
2013-05-17 04:02:00,61.0,56.0,29.91,NNW,338,0.0,0.0,85,0.00,,,0.00,,2013-05-17 08:02:00,
2013-05-17 04:12:00,61.0,56.0,29.91,NNW,338,0.0,0.0,85,0.00,,,0.00,,2013-05-17 08:12:00,
2013-05-17 04:23:00,61.0,57.0,29.91,NNW,338,0.0,0.0,86,0.00,,,0.00,,2013-05-17 08:23:00,
2013-05-17 04:33:00,61.0,57.0,29.91,NNW,338,0.0,0.0,86,0.00,,,0.00,,2013-05-17 08:33:00,
2013-05-17 04:42:00,61.0,57.0,29.91,NNW,338,0.0,0.0,86,0.00,,,0.00,,2013-05-17 08:42:00,
2013-05-17 04:52:00,61.0,57.0,29.91,NNW,338,0.0,0.0,86,0.00,,,0.00,,2013-05-17 08:52:00,
2013-05-17 05:02:00,61.0,57.0,29.93,NNW,338,0.0,0.0,86,0.00,,,0.00,,2013-05-17 09:02:00,
2013-05-17 05:12:00,61.0,57.0,29.93,NNW,338,0.0,0.0,86,0.00,,,0.00,,2013-05-17 09:12:00,
2013-05-17 05:22:00,61.0,57.0,29.93,NNW,338,0.0,0.0,86,0.00,,,0.00,,2013-05-17 09:22:00,
2013-05-17 05:33:00,61.0,57.0,29.94,NNW,338,0.0,0.0,86,0.00,,,0.00,,2013-05-17 09:33:00,
2013-05-17 05:42:00,61.0,57.0,29.94,NNW,338,0.0,0.0,86,0.00,,,0.00,,2013-05-17 09:42:00,
2013-05-17 05:53:00,62.0,58.0,29.95,NNW,338,0.0,0.0,86,0.00,,,0.00,,2013-05-17 09:53:00,
2013-05-17 06:03:00,62.0,58.0,29.95,NNW,338,0.0,0.0,86,0.00,,,0.00,,2013-05-17 10:03:00,
2013-05-17 06:12:00,62.0,58.0,29.95,NNW,338,0.0,0.0,86,0.00,,,0.00,,2013-05-17 10:12:00,
2013-05-17 06:23:00,62.0,57.0,29.96,NNW,338,0.0,0.0,85,0.00,,,0.00,,2013-05-17 10:23:00,
2013-05-17 06:33:00,63.0,58.0,29.96,NNW,338,0.0,0.0,85,0.00,,,0.00,,2013-05-17 10:33:00,
2013-05-17 06:42:00,63.0,58.0,29.96,NNW,338,0.0,0.0,85,0.00,,,0.00,,2013-05-17 10:42:00,
2013-05-17 06:54:00,63.0,58.0,29.96,NNW,338,0.0,0.0,85,0.00,,,0.00,,2013-05-17 10:54:00,
2013-05-17 07:02:00,63.0,58.0,29.96,NNW,338,0.0,0.0,85,0.00,,,0.00,,2013-05-17 11:02:00,
2013-05-17 07:12:00,63.0,58.0,29.96,NNW,338,0.0,0.0,85,0.00,,,0.00,,2013-05-17 11:12:00,
2013-05-17 07:23:00,63.0,58.0,29.97,NNW,338,0.0,1.0,85,0.00,,,0.00,,2013-05-17 11:23:00,
2013-05-17 07:34:00,63.0,58.0,29.97,NNW,338,0.0,0.0,85,0.00,,,0.00,,2013-05-17 11:34:00,
2013-05-17 07:42:00,63.0,58.0,29.97,NNW,338,0.0,0.0,85,0.00,,,0.00,,2013-05-17 11:42:00,
2013-05-17 07:53:00,64.0,59.0,29.98,NNW,338,0.0,0.0,85,0.00,,,0.00,,2013-05-17 11:53:00,
2013-05-17 08:03:00,64.0,59.0,29.98,NNW,338,0.0,0.0,84,0.00,,,0.00,,2013-05-17 12:03:00,
2013-05-17 08:12:00,64.0,59.0,29.98,NNW,338,0.0,0.0,84,0.00,,,0.00,,2013-05-17 12:12:00,
2013-05-17 08:23:00,65.0,60.0,29.99,NNW,338,0.0,0.0,83,0.00,,,0.00,,2013-05-17 12:23:00,
2013-05-17 08:32:00,66.0,60.0,29.99,NNW,338,0.0,0.0,82,0.00,,,0.00,,2013-05-17 12:32:00,
2013-05-17 08:43:00,66.0,60.0,29.99,NNW,338,0.0,0.0,82,0.00,,,0.00,,2013-05-17 12:43:00,
2013-05-17 08:53:00,67.0,61.0,29.98,NNW,338,0.0,0.0,80,0.00,,,0.00,,2013-05-17 12:53:00,
2013-05-17 09:03:00,67.0,60.0,29.99,NNW,338,0.0,0.0,79,0.00,,,0.00,,2013-05-17 13:03:00,
2013-05-17 09:12:00,67.0,60.0,29.99,NNW,338,0.0,0.0,79,0.00,,,0.00,,2013-05-17 13:12:00,
2013-05-17 09:23:00,69.0,61.0,29.99,NNW,338,0.0,0.0,75,0.00,,,0.00,,2013-05-17 13:23:00,
2013-05-17 09:33:00,71.0,59.0,29.99,NNW,338,0.0,0.0,67,0.00,,,0.00,,2013-05-17 13:33:00,
2013-05-17 09:42:00,71.0,59.0,29.99,NNW,338,0.0,0.0,67,0.00,,,0.00,,2013-05-17 13:42:00,
2013-05-17 09:52:00,72.0,58.0,29.99,NNW,338,0.0,1.0,62,0.00,,,0.00,,2013-05-17 13:52:00,
2013-05-17 10:02:00,74.0,59.0,29.99,NNW,338,0.0,2.0,60,0.00,,,0.00,,2013-05-17 14:02:00,
2013-05-17 10:13:00,74.0,59.0,29.99,NNW,338,0.0,2.0,60,0.00,,,0.00,,2013-05-17 14:13:00,
2013-05-17 10:22:00,74.0,57.0,29.99,ENE,61,0.0,2.0,55,0.00,,,0.00,,2013-05-17 14:22:00,
2013-05-17 10:34:00,76.0,57.0,29.99,ENE,59,0.0,1.0,52,0.00,,,0.00,,2013-05-17 14:34:00,
2013-05-17 10:43:00,76.0,57.0,29.99,ENE,59,0.0,1.0,52,0.00,,,0.00,,2013-05-17 14:43:00,
2013-05-17 10:53:00,77.0,57.0,29.99,ENE,67,0.0,2.0,51,0.00,,,0.00,,2013-05-17 14:53:00,
2013-05-17 11:03:00,77.0,57.0,29.99,ENE,67,0.0,2.0,51,0.00,,,0.00,,2013-05-17 15:03:00,
2013-05-17 11:14:00,77.0,57.0,29.99,ENE,67,0.0,2.0,51,0.00,,,0.00,,2013-05-17 15:14:00,
2013-05-17 11:25:00,78.0,57.0,29.99,NE,51,0.0,1.0,49,0.00,,,0.00,,2013-05-17 15:25:00,
2013-05-17 11:37:00,79.0,59.0,29.99,NE,51,0.0,1.0,50,0.00,,,0.00,,2013-05-17 15:37:00,
2013-05-17 11:47:00,79.0,59.0,29.99,NE,51,0.0,1.0,50,0.00,,,0.00,,2013-05-17 15:47:00,
2013-05-17 11:57:00,79.0,57.0,29.99,NE,51,0.0,2.0,47,0.00,,,0.00,,2013-05-17 15:57:00,
2013-05-17 12:07:00,79.0,57.0,29.99,ENE,61,0.0,2.0,47,0.00,,,0.00,,2013-05-17 16:07:00,
2013-05-17 12:14:00,79.0,57.0,29.99,ENE,61,0.0,2.0,47,0.00,,,0.00,,2013-05-17 16:14:00,
2013-05-17 12:26:00,79.0,58.0,29.99,ENE,62,0.0,2.0,49,0.00,,,0.00,,2013-05-17 16:26:00,
2013-05-17 12:37:00,81.0,58.0,29.99,ENE,62,0.0,1.0,46,0.00,,,0.00,,2013-05-17 16:37:00,
2013-05-17 12:49:00,81.0,58.0,29.99,ENE,62,0.0,1.0,46,0.00,,,0.00,,2013-05-17 16:49:00,
2013-05-17 12:56:00,82.0,61.0,29.99,ENE,61,0.0,1.0,49,0.00,,,0.00,,2013-05-17 16:56:00,
2013-05-17 13:08:00,82.0,59.0,29.99,ESE,123,0.0,3.0,45,0.00,,,0.00,,2013-05-17 17:08:00,
2013-05-17 13:19:00,82.0,59.0,29.99,ESE,123,0.0,3.0,45,0.00,,,0.00,,2013-05-17 17:19:00,
2013-05-17 13:30:00,82.0,57.0,29.98,SW,231,0.0,2.0,42,0.00,,,0.00,,2013-05-17 17:30:00,
2013-05-17 13:40:00,81.0,-99.9,29.98,SW,232,1.0,2.0,45,0.00,,,0.00,,2013-05-17 17:40:00,
2013-05-17 13:49:00,81.0,58.0,29.98,SW,232,1.0,2.0,45,0.00,,,0.00,,2013-05-17 17:49:00,
2013-05-17 14:00:00,82.0,-99.9,29.98,West,267,0.0,3.0,44,0.00,,,0.00,,2013-05-17 18:00:00,
2013-05-17 14:09:00,81.0,56.0,29.98,West,267,0.0,3.0,43,0.00,,,0.00,,2013-05-17 18:09:00,
2013-05-17 14:20:00,81.0,56.0,29.98,West,267,0.0,3.0,43,0.00,,,0.00,,2013-05-17 18:20:00,
2013-05-17 14:30:00,81.0,58.0,29.98,West,267,0.0,1.0,45,0.00,,,0.00,,2013-05-17 18:30:00,
2013-05-17 14:40:00,83.0,-99.9,29.97,West,259,0.0,2.0,43,0.00,,,0.00,,2013-05-17 18:40:00,
2013-05-17 14:50:00,-999.0,-99.9,29.97,West,259,0.0,2.0,43,0.00,,,0.00,,2013-05-17 18:50:00,
2013-05-17 15:00:00,82.0,-99.9,29.97,ESE,117,1.0,2.0,42,0.00,,,0.00,,2013-05-17 19:00:00,
2013-05-17 15:10:00,82.0,60.0,29.97,ENE,59,0.0,3.0,47,0.00,,,0.00,,2013-05-17 19:10:00,
2013-05-17 15:20:00,82.0,60.0,29.97,ENE,59,0.0,3.0,47,0.00,,,0.00,,2013-05-17 19:20:00,
2013-05-17 15:30:00,82.0,58.0,29.97,East,88,0.0,3.0,44,0.00,,,0.00,,2013-05-17 19:30:00,
2013-05-17 15:40:00,82.0,57.0,29.97,WSW,256,0.0,2.0,42,0.00,,,0.00,,2013-05-17 19:40:00,
2013-05-17 15:51:00,82.0,57.0,29.97,WSW,256,0.0,2.0,42,0.00,,,0.00,,2013-05-17 19:51:00,
2013-05-17 16:01:00,-999.0,-99.9,29.96,ENE,73,0.0,2.0,42,0.00,,,0.00,,2013-05-17 20:01:00,
2013-05-17 16:09:00,83.0,57.0,29.96,NE,53,0.0,3.0,41,0.00,,,0.00,,2013-05-17 20:09:00,
2013-05-17 16:20:00,83.0,57.0,29.96,NE,53,0.0,3.0,41,0.00,,,0.00,,2013-05-17 20:20:00,
2013-05-17 16:30:00,83.0,58.0,29.95,West,263,0.0,2.0,42,0.00,,,0.00,,2013-05-17 20:30:00,
2013-05-17 16:40:00,82.0,57.0,29.95,West,263,0.0,2.0,42,0.00,,,0.00,,2013-05-17 20:40:00,
2013-05-17 16:50:00,82.0,57.0,29.95,West,263,0.0,2.0,42,0.00,,,0.00,,2013-05-17 20:50:00,
2013-05-17 16:58:00,81.0,58.0,29.94,West,273,0.0,1.0,45,0.00,,,0.00,,2013-05-17 20:58:00,
2013-05-17 17:07:00,81.0,58.0,29.95,SSW,206,0.0,2.0,45,0.00,,,0.00,,2013-05-17 21:07:00,
2013-05-17 17:17:00,81.0,58.0,29.95,SSW,206,0.0,2.0,45,0.00,,,0.00,,2013-05-17 21:17:00,
2013-05-17 17:26:00,82.0,59.0,29.94,SSW,206,0.0,1.0,46,0.00,,,0.00,,2013-05-17 21:26:00,
2013-05-17 17:39:00,82.0,60.0,29.94,SSW,206,0.0,1.0,47,0.00,,,0.00,,2013-05-17 21:39:00,
2013-05-17 17:49:00,82.0,60.0,29.94,SSW,206,0.0,1.0,47,0.00,,,0.00,,2013-05-17 21:49:00,
2013-05-17 17:58:00,81.0,57.0,29.94,SSW,206,0.0,0.0,44,0.00,,,0.00,,2013-05-17 21:58:00,
2013-05-17 18:07:00,80.0,59.0,29.94,SSW,206,0.0,0.0,49,0.00,,,0.00,,2013-05-17 22:07:00,
2013-05-17 18:17:00,80.0,59.0,29.94,SSW,206,0.0,0.0,49,0.00,,,0.00,,2013-05-17 22:17:00,
2013-05-17 18:28:00,80.0,60.0,29.94,SSW,206,0.0,0.0,50,0.00,,,0.00,,2013-05-17 22:28:00,
2013-05-17 18:38:00,79.0,61.0,29.94,SSW,206,0.0,0.0,54,0.00,,,0.00,,2013-05-17 22:38:00,
2013-05-17 18:47:00,79.0,61.0,29.94,SSW,206,0.0,0.0,54,0.00,,,0.00,,2013-05-17 22:47:00,
2013-05-17 18:55:00,79.0,62.0,29.94,SSW,206,0.0,0.0,56,0.00,,,0.00,,2013-05-17 22:55:00,
2013-05-17 19:04:00,79.0,61.0,29.94,SSW,206,0.0,0.0,55,0.00,,,0.00,,2013-05-17 23:04:00,
2013-05-17 19:13:00,79.0,61.0,29.94,SSW,206,0.0,0.0,55,0.00,,,0.00,,2013-05-17 23:13:00,
2013-05-17 19:23:00,79.0,61.0,29.94,SSW,206,0.0,0.0,54,0.00,,,0.00,,2013-05-17 23:23:00,
2013-05-17 19:37:00,78.0,62.0,29.94,SSW,206,0.0,0.0,58,0.00,,,0.00,,2013-05-17 23:37:00,
2013-05-17 19:47:00,78.0,62.0,29.94,SSW,206,0.0,0.0,58,0.00,,,0.00,,2013-05-17 23:47:00,
2013-05-17 19:54:00,77.0,62.0,29.94,SSW,206,0.0,0.0,60,0.00,,,0.00,,2013-05-17 23:54:00,
2013-05-17 20:02:00,76.0,62.0,29.94,SSW,206,0.0,0.0,63,0.00,,,0.00,,2013-05-18 00:02:00,
2013-05-17 20:14:00,76.0,62.0,29.94,SSW,206,0.0,0.0,63,0.00,,,0.00,,2013-05-18 00:14:00,
2013-05-17 20:22:00,75.0,63.0,29.95,SSW,206,0.0,0.0,67,0.00,,,0.00,,2013-05-18 00:22:00,
2013-05-17 20:33:00,75.0,63.0,29.95,SSW,206,0.0,0.0,67,0.00,,,0.00,,2013-05-18 00:33:00,
2013-05-17 20:44:00,75.0,63.0,29.95,SSW,206,0.0,0.0,67,0.00,,,0.00,,2013-05-18 00:44:00,
2013-05-17 20:54:00,74.0,64.0,29.95,SSW,206,0.0,0.0,71,0.00,,,0.00,,2013-05-18 00:54:00,
2013-05-17 21:03:00,73.0,65.0,29.96,SSW,206,0.0,0.0,75,0.00,,,0.00,,2013-05-18 01:03:00,
2013-05-17 21:13:00,73.0,65.0,29.96,SSW,206,0.0,0.0,75,0.00,,,0.00,,2013-05-18 01:13:00,
2013-05-17 21:24:00,72.0,64.0,29.96,SSW,206,0.0,0.0,76,0.00,,,0.00,,2013-05-18 01:24:00,
2013-05-17 21:32:00,72.0,64.0,29.96,SSW,206,0.0,0.0,76,0.00,,,0.00,,2013-05-18 01:32:00,
2013-05-17 21:43:00,72.0,64.0,29.96,SSW,206,0.0,0.0,76,0.00,,,0.00,,2013-05-18 01:43:00,
2013-05-17 21:52:00,71.0,63.0,29.97,SSW,206,0.0,0.0,77,0.00,,,0.00,,2013-05-18 01:52:00,
2013-05-17 22:02:00,70.0,63.0,29.97,SSW,206,0.0,0.0,78,0.00,,,0.00,,2013-05-18 02:02:00,
2013-05-17 22:12:00,70.0,63.0,29.97,SSW,206,0.0,0.0,78,0.00,,,0.00,,2013-05-18 02:12:00,
2013-05-17 22:23:00,70.0,62.0,29.97,SSW,206,0.0,0.0,77,0.00,,,0.00,,2013-05-18 02:23:00,
2013-05-17 22:32:00,69.0,62.0,29.98,SSW,206,0.0,1.0,78,0.00,,,0.00,,2013-05-18 02:32:00,
2013-05-17 22:42:00,69.0,62.0,29.98,SSW,206,0.0,1.0,78,0.00,,,0.00,,2013-05-18 02:42:00,
2013-05-17 22:54:00,69.0,62.0,29.98,SSW,206,0.0,0.0,79,0.00,,,0.00,,2013-05-18 02:54:00,
2013-05-17 23:03:00,68.0,62.0,29.98,SSW,206,0.0,0.0,80,0.00,,,0.00,,2013-05-18 03:03:00,
2013-05-17 23:12:00,68.0,62.0,29.98,SSW,206,0.0,0.0,80,0.00,,,0.00,,2013-05-18 03:12:00,
2013-05-17 23:23:00,68.0,62.0,29.98,SSW,206,0.0,0.0,81,0.00,,,0.00,,2013-05-18 03:23:00,
2013-05-17 23:33:00,68.0,62.0,29.98,SSW,206,0.0,1.0,81,0.00,,,0.00,,2013-05-18 03:33:00,
2013-05-17 23:43:00,68.0,62.0,29.98,SSW,206,0.0,1.0,81,0.00,,,0.00,,2013-05-18 03:43:00,
2013-05-17 23:53:00,68.0,62.0,29.98,SSW,206,0.0,0.0,81,0.00,,,0.00,,2013-05-18 03:53:00,